Wind_Speed
25 26 25 21 18 16 14 13 11 10 9 8 5 2 1 2 2 2 2 3 3 4 4 4 7 9 8 6 6 6 6 5 6 6 5 4 3 3 3 4 4 3 3 3 3 4 4 4 4 5 6 5 6 7 8 10 10 11 12 12 12 12 13 14 16 17 19 19 20 20 20 20 21 23 26 28 28 28 29 29 30 31 32 33 33 32
29 31 30 24 21 18 17 16 14 13 12 11 9 6 4 2 1 0 0 1 2 3 3 3 4 6 6 4 3 3 4 4 5 5 4 3 3 3 3 3 3 3 4 4 5 5 5 5 5 6 6 6 6 7 8 9 10 10 11 12 12 13 14 16 16 17 18 19 20 20 20 21 22 24 26 28 30 30 30 31 31 32 33 33 34 34
34 38 34 26 24 21 20 19 16 16 15 14 13 10 8 6 3 2 2 2 1 1 2 2 3 4 3 1 1 1 2 3 4 4 3 3 2 2 3 2 2 3 4 4 4 5 5 6 6 7 7 7 7 7 8 9 10 11 12 12 12 13 16 17 17 18 19 20 20 21 22 22 23 25 27 29 30 31 31 32 32 33 34 34 35 35
40 43 37 29 26 25 23 22 20 19 18 17 16 14 13 11 7 5 4 3 3 1 0 0 0 1 1 1 1 1 1 1 1 2 2 1 1 0 1 1 2 2 3 3 4 4 5 5 6 6 7 7 7 8 8 10 11 13 13 13 13 14 17 18 19 19 20 21 22 23 24 25 25 27 28 29 31 32 32 33 33 34 34 35 35 36
45 46 38 31 29 28 27 25 24 23 22 20 19 17 16 14 11 9 7 5 5 4 3 2 2 2 2 2 2 2 2 2 1 1 1 2 2 2 2 3 3 4 4 4 5 5 5 5 6 6 7 7 8 9 9 11 12 13 14 14 14 16 17 19 20 21 22 23 24 25 26 26 27 28 29 30 31 33 33 34 34 35 35 35 35 36
48 48 39 34 32 31 31 29 29 28 25 24 22 21 19 16 14 14 11 8 7 6 6 5 4 4 4 4 4 4 4 4 3 3 3 3 3 4 4 5 5 5 5 6 6 6 6 6 7 7 8 8 9 9 10 11 13 14 14 15 16 17 19 20 22 23 23 24 25 26 27 27 28 29 30 31 32 34 34 35 35 36 35 35 36 36
50 49 40 36 35 34 34 33 33 32 29 28 27 24 21 17 16 17 15 12 10 7 8 8 6 6 6 6 7 7 7 7 6 5 6 6 6 6 6 7 7 7 7 7 8 8 9 9 9 9 9 10 10 11 12 13 14 15 16 17 18 19 20 21 22 24 25 26 27 27 28 28 29 30 31 32 33 34 35 35 35 36 36 36 36 36
51 50 42 38 38 37 36 36 37 36 33 34 31 26 23 20 18 19 18 17 13 10 11 11 9 8 8 8 8 8 9 10 9 8 8 8 9 9 9 9 9 9 9 9 9 9 10 10 10 10 11 12 12 13 14 15 16 17 18 19 19 20 21 22 23 25 26 27 28 29 29 29 30 31 31 32 34 34 35 35 36 36 37 36 36 37
53 53 45 42 41 39 39 41 41 38 38 38 34 28 25 23 20 20 20 20 17 14 15 15 12 10 10 10 9 8 10 11 11 11 10 10 10 10 10 10 10 10 10 10 10 10 11 11 12 12 13 14 15 16 17 17 18 18 19 20 21 22 22 23 24 26 27 29 30 30 31 31 31 32 32 33 34 35 36 36 37 38 38 38 38 37
55 55 49 44 41 40 42 44 43 41 41 41 35 30 28 25 22 21 21 22 19 17 21 21 16 14 12 12 11 10 11 12 12 12 12 13 13 11 11 11 11 11 11 11 11 12 13 13 14 14 15 16 17 18 19 19 19 20 21 22 23 24 24 25 26 28 29 30 31 32 32 32 32 32 33 34 35 36 37 38 39 40 40 39 38 37
57 57 52 45 42 42 45 46 44 43 45 42 35 32 31 28 26 24 23 23 20 21 27 25 21 18 15 15 15 12 12 14 14 15 15 16 16 15 14 13 13 13 14 13 14 14 15 15 15 16 17 18 19 20 21 21 22 22 23 24 25 26 27 28 29 30 30 31 32 32 32 32 32 33 33 34 36 37 39 40 41 42 41 39 38 36
58 58 54 48 45 44 46 47 45 45 47 42 35 34 33 31 29 27 27 25 23 27 32 29 25 22 20 19 17 15 16 17 16 18 18 18 18 18 17 16 15 16 16 16 16 17 17 18 18 18 19 20 21 22 23 24 25 26 26 27 28 29 29 30 31 31 32 32 32 33 33 33 32 33 34 35 37 38 40 41 41 42 41 38 36 36
58 58 56 52 49 47 47 48 46 46 48 44 38 36 35 34 32 30 30 29 28 33 35 30 27 26 25 22 21 20 20 19 19 21 22 21 20 20 19 18 18 18 19 18 18 19 20 20 21 22 23 23 24 25 26 27 28 29 30 30 31 31 32 32 33 33 33 33 33 33 34 34 33 33 34 36 38 39 40 41 41 41 41 37 35 37
60 61 60 56 52 49 48 49 47 46 48 47 42 39 38 37 36 34 34 34 34 36 37 32 27 28 29 27 25 25 23 22 23 24 25 24 24 24 23 22 21 21 22 22 22 22 23 24 25 25 26 27 28 28 29 30 31 32 32 33 33 34 34 34 34 34 35 34 34 35 35 35 35 35 35 37 39 40 41 42 42 42 41 37 35 36
65 65 63 59 55 52 50 49 49 49 50 50 47 43 41 40 39 38 38 38 38 39 38 33 27 29 34 30 26 27 28 27 27 28 28 28 28 28 27 26 25 24 24 25 26 27 27 27 28 29 30 30 31 31 32 32 33 34 35 35 35 36 36 36 36 36 36 35 36 36 36 37 37 37 38 39 40 40 41 42 42 42 40 37 35 35
69 67 66 63 60 58 55 54 54 54 52 52 50 46 41 41 43 43 42 41 41 39 37 34 29 31 36 32 28 30 32 31 31 31 31 31 31 32 31 30 29 28 27 27 28 30 31 31 32 32 33 33 33 34 34 34 35 36 36 37 37 37 37 37 37 37 37 37 38 38 39 39 40 41 41 41 41 42 41 41 39 38 38 36 36 37
70 68 68 68 64 62 61 60 60 60 56 55 53 47 43 46 48 47 44 43 42 39 37 36 32 33 36 34 33 33 34 34 34 33 33 33 35 36 35 34 33 31 30 30 30 32 33 34 34 35 36 36 36 36 36 36 37 37 38 38 38 37 38 38 38 39 38 39 40 40 41 42 43 43 42 43 43 43 43 40 35 34 36 37 37 38
73 71 71 71 68 64 64 63 63 63 60 58 55 50 50 53 51 47 45 43 42 39 37 38 36 35 36 36 37 37 37 37 36 35 35 35 38 39 39 38 36 34 33 33 34 34 35 35 36 37 37 37 37 37 37 37 38 38 38 38 38 38 38 39 40 40 41 41 42 43 44 44 44 45 45 46 46 45 46 41 35 33 35 35 35 36
76 74 75 76 72 70 69 68 66 65 62 59 56 55 56 55 50 46 44 42 42 40 39 39 39 36 36 38 40 40 39 40 38 36 36 37 39 41 40 40 39 38 37 36 36 37 37 37 38 38 38 38 38 38 38 39 39 39 39 39 39 39 40 41 42 43 43 44 45 46 46 45 46 47 47 48 48 47 46 41 35 35 35 34 36 40
78 76 77 78 77 75 75 72 67 65 64 62 60 60 59 56 51 48 46 43 42 40 39 40 40 37 37 40 42 41 41 41 40 39 39 39 41 42 42 42 41 41 40 40 39 39 39 39 40 40 39 39 40 39 40 40 40 41 41 41 41 41 42 43 44 45 45 46 46 47 47 46 47 48 49 49 49 49 47 42 38 37 38 41 44 47
80 78 77 79 80 79 77 72 65 64 67 66 64 63 61 59 55 52 49 46 44 42 41 41 40 39 40 43 43 42 42 43 43 42 42 42 43 44 44 44 44 44 44 43 43 43 42 42 42 42 41 41 41 41 41 42 42 43 43 43 43 44 44 44 45 45 46 46 47 47 47 48 48 49 50 50 50 49 47 42 39 39 40 43 47 49
81 79 78 80 82 79 75 71 67 68 71 70 67 65 64 62 60 57 54 50 47 45 43 43 42 42 44 46 45 44 44 45 45 44 43 43 45 46 47 46 46 47 47 47 47 46 45 45 45 45 44 43 43 43 43 44 45 45 45 45 46 46 45 45 45 45 45 46 46 46 47 48 48 48 50 51 49 47 46 43 41 40 39 40 44 47
83 81 80 82 81 77 75 74 72 72 75 74 70 67 66 66 63 60 56 53 51 48 46 46 44 43 45 47 46 45 44 45 45 44 44 44 46 48 48 48 48 49 50 50 50 48 47 48 48 48 47 46 45 45 45 46 47 47 48 47 47 47 46 45 45 45 45 46 46 47 47 48 48 48 49 51 50 47 46 46 44 42 40 40 43 46
86 84 82 81 80 79 78 79 77 76 77 76 71 66 65 65 62 60 57 56 55 52 49 49 45 42 44 47 46 44 44 44 45 45 46 46 48 49 49 49 50 50 51 52 51 50 50 50 51 50 49 48 48 48 48 48 49 49 49 49 48 48 46 46 45 45 45 46 47 47 46 46 47 48 49 50 51 49 47 48 48 47 45 42 42 46
88 85 82 82 83 83 82 82 80 76 76 74 69 65 65 65 64 63 61 60 58 55 52 50 44 41 44 47 47 46 46 46 47 47 48 49 50 50 50 50 51 51 52 54 53 52 52 52 52 52 51 50 50 49 49 50 50 50 49 49 49 48 47 46 46 46 46 46 47 47 47 46 46 48 49 50 52 51 50 50 52 53 52 47 43 44
89 86 85 84 85 84 82 79 75 72 72 72 69 66 66 66 66 66 64 63 60 56 55 52 47 45 47 49 50 50 49 49 49 49 50 51 51 50 50 50 51 52 53 54 55 53 54 54 54 54 54 53 52 51 51 51 51 50 50 50 49 48 48 47 47 47 47 47 49 49 48 47 47 49 50 51 52 51 51 53 55 57 55 50 45 45
91 89 87 86 85 83 80 76 73 73 73 73 71 68 68 68 69 69 68 65 61 59 58 55 52 51 52 52 53 52 52 52 51 51 52 53 52 50 50 51 52 53 53 55 55 55 55 56 57 57 57 56 54 53 54 54 53 52 52 51 50 50 49 49 50 50 49 49 51 51 50 49 49 50 51 53 52 49 50 54 56 58 56 52 50 51
92 90 88 87 85 83 80 78 78 78 77 75 73 72 72 72 73 74 71 66 63 62 60 57 56 55 54 54 54 54 54 53 52 53 54 53 52 51 51 52 53 54 54 55 56 56 57 59 59 59 58 57 56 56 56 56 56 55 54 54 53 52 52 52 52 52 52 52 52 52 52 50 51 50 50 52 51 50 52 55 55 56 56 54 55 57
92 89 88 87 86 83 82 81 82 81 80 78 77 76 75 76 76 75 72 68 66 65 61 58 59 58 55 56 55 55 55 54 53 55 54 53 52 52 54 54 54 55 55 56 57 58 60 61 61 61 60 58 58 58 58 59 59 58 58 57 56 55 55 55 55 55 55 54 54 53 53 51 51 50 48 49 52 53 54 52 47 48 52 54 56 58
92 89 87 87 86 84 83 83 83 83 82 80 79 78 78 77 77 76 74 71 68 66 62 61 61 60 57 57 56 55 54 54 54 54 54 54 54 55 56 57 57 57 57 58 59 61 62 63 63 63 62 60 60 59 60 60 61 61 61 60 59 59 58 58 58 58 58 58 57 55 54 53 51 50 46 44 47 50 51 46 42 43 47 51 54 57
92 88 86 87 86 85 85 84 84 84 83 81 80 79 79 79 78 77 75 72 70 67 64 63 63 61 58 57 56 55 55 54 54 55 55 55 56 57 59 60 59 59 59 61 62 63 64 64 64 65 65 64 62 61 61 62 63 63 63 63 62 62 61 61 60 59 59 59 58 57 56 55 52 50 46 41 39 44 48 48 48 48 49 53 57 60
91 88 87 88 87 85 85 85 84 83 83 83 82 80 80 79 78 76 74 73 71 68 66 66 63 60 58 58 58 58 57 55 55 56 56 57 57 59 60 61 61 61 62 64 65 66 66 66 66 67 67 67 66 64 64 64 65 66 66 65 65 63 63 62 61 60 60 59 59 57 56 56 54 51 48 42 38 45 51 54 56 57 56 61 65 64
92 89 89 89 87 83 82 84 84 85 87 85 82 79 79 78 76 76 75 73 71 69 68 65 62 59 59 60 59 58 57 56 56 57 59 59 60 60 62 62 63 63 65 66 67 68 68 68 69 70 70 70 69 68 67 67 67 68 68 66 65 63 62 61 60 60 60 59 58 57 55 55 54 52 50 44 38 45 53 57 61 64 65 70 73 72
93 91 90 89 86 81 81 83 85 88 90 85 79 77 77 77 77 77 76 74 72 70 68 64 62 61 61 61 60 59 59 58 59 61 62 62 62 63 64 65 66 66 67 69 69 69 69 70 70 71 72 72 72 70 69 69 68 68 67 65 64 62 61 61 60 60 60 59 58 56 55 55 54 52 51 45 39 45 54 60 67 73 74 75 75 74
94 92 91 89 85 82 82 84 87 89 88 82 78 78 78 78 79 78 77 75 73 70 68 65 64 63 62 62 61 61 61 62 63 64 65 66 66 67 68 69 69 70 70 70 71 71 70 70 71 72 74 74 73 72 70 69 67 66 64 63 62 62 61 61 61 61 61 61 60 58 56 56 54 53 51 45 42 48 56 62 70 75 77 77 75 75
94 93 92 88 85 83 83 85 87 87 85 81 80 80 80 81 81 79 77 75 72 71 69 67 65 64 63 63 63 63 64 66 66 67 68 68 69 69 70 70 71 71 71 71 71 70 70 69 70 72 73 74 73 71 69 67 65 63 63 62 62 62 61 62 62 63 63 63 62 60 59 57 55 54 50 46 46 53 59 64 71 75 77 80 80 80
92 93 92 89 86 85 83 84 86 86 83 82 82 82 82 82 82 80 78 76 73 72 71 68 65 64 64 64 64 64 66 67 67 67 68 69 70 70 70 71 71 71 71 71 70 69 68 68 69 70 71 72 72 70 68 66 65 64 64 63 62 62 63 63 64 65 65 65 64 62 61 59 57 55 50 47 51 57 61 66 71 75 78 81 83 83
90 91 92 90 88 86 84 85 85 84 82 81 81 82 82 82 82 80 77 75 74 72 70 67 64 64 64 65 65 65 67 68 67 68 69 69 70 70 70 71 71 71 71 69 68 67 66 67 68 68 69 70 70 69 68 67 67 67 66 66 65 65 65 65 66 67 67 66 65 64 63 61 60 57 53 49 52 57 61 66 71 75 78 80 83 85
88 89 91 91 90 87 85 85 85 83 82 81 81 82 81 81 81 78 76 74 73 71 68 66 65 66 66 67 67 67 68 69 69 70 70 71 71 71 71 71 71 70 69 68 66 66 66 66 67 67 67 68 69 69 68 68 69 69 69 69 68 67 67 68 68 68 68 68 67 66 65 63 61 60 58 55 55 59 64 68 71 74 77 80 83 85
85 86 89 90 89 88 87 85 85 84 83 83 82 81 80 79 78 75 73 73 71 68 66 65 66 68 68 69 69 68 69 70 70 70 71 71 71 71 71 70 69 68 67 66 65 66 66 67 67 67 67 68 69 69 70 70 71 71 71 71 70 70 70 70 69 68 68 68 67 66 65 65 64 62 59 57 58 61 66 69 71 73 76 77 78 78
81 82 85 87 88 88 87 86 85 85 84 83 83 81 79 78 76 73 71 71 69 66 66 67 67 68 68 68 68 68 70 70 69 69 70 70 70 70 70 69 68 67 67 67 66 67 68 68 67 67 68 70 71 71 72 72 72 73 72 73 73 72 72 71 70 69 68 67 66 65 65 65 64 61 60 60 62 64 65 65 65 65 66 67 69 70
77 79 79 82 85 87 87 86 84 85 85 83 82 80 78 76 74 72 71 70 69 67 67 68 68 68 68 68 68 69 69 68 67 68 70 71 71 71 71 71 70 68 67 68 68 68 69 70 70 70 71 72 73 73 73 74 74 74 74 74 74 74 73 72 71 69 68 66 65 65 65 64 62 62 62 63 64 63 62 60 58 57 60 62 63 64
71 76 76 76 79 83 85 85 84 84 84 83 82 80 77 75 74 73 73 71 71 71 70 69 68 69 69 69 68 68 69 68 69 70 71 72 73 73 73 73 72 70 69 69 70 71 72 73 73 73 73 74 74 75 75 75 75 74 75 75 75 75 74 73 71 69 67 66 65 64 64 63 62 63 63 64 64 64 63 61 58 58 61 64 64 64
63 68 71 70 71 76 81 83 84 83 82 82 83 81 78 76 75 74 74 74 74 73 71 70 70 70 70 70 70 69 70 71 72 73 72 73 73 73 73 74 73 73 73 72 73 74 74 74 74 75 75 76 76 77 77 76 76 75 75 76 76 75 74 72 70 68 67 65 64 63 62 62 63 63 63 63 62 59 57 59 61 61 63 65 65 67
63 61 65 65 62 66 75 81 82 83 82 81 82 82 79 78 77 76 75 74 74 74 73 71 71 72 72 72 72 71 72 74 74 73 73 74 74 74 74 75 76 76 76 76 76 77 77 76 76 77 77 77 78 78 78 78 77 76 76 77 76 74 72 70 68 67 66 64 63 63 63 64 64 64 64 64 61 56 57 63 68 68 66 64 62 64
70 65 65 66 59 55 65 74 77 79 80 80 81 81 79 78 77 77 77 76 74 74 74 73 73 73 74 74 74 74 75 76 76 75 75 76 76 76 76 77 78 78 78 77 78 79 79 78 78 78 79 79 79 79 79 78 77 77 77 77 75 73 71 70 68 67 66 65 65 64 64 64 65 66 66 67 67 66 65 67 70 70 65 62 62 65
77 72 70 71 65 54 54 64 70 72 75 76 77 78 79 79 77 74 75 76 76 76 75 74 75 75 76 76 76 76 77 77 77 77 77 78 78 78 78 79 80 80 80 79 80 80 80 79 79 79 80 80 80 79 79 79 79 79 78 75 74 72 72 71 70 69 68 67 66 65 65 65 66 68 70 71 72 71 68 67 70 72 70 67 68 69
81 79 75 74 71 63 55 56 60 63 67 69 69 68 70 73 74 73 73 72 72 73 76 76 75 76 77 77 76 77 79 80 79 79 79 79 80 80 80 80 80 80 79 79 79 80 80 79 79 79 79 79 80 80 80 80 79 78 75 74 73 73 72 70 69 68 67 67 67 67 67 68 70 72 73 73 72 70 68 67 68 71 71 72 74 74
80 81 79 76 74 70 62 56 53 51 53 57 58 59 62 67 69 72 74 71 66 66 71 73 73 74 75 75 74 73 74 76 77 78 80 81 81 80 79 79 79 78 78 78 79 80 80 79 79 79 79 80 80 79 78 77 75 73 72 71 72 71 70 69 68 67 67 68 69 70 70 72 74 74 73 72 71 72 72 71 70 71 73 75 78 80
79 79 79 76 73 70 66 62 57 51 48 49 49 48 53 61 66 68 71 71 68 68 70 72 73 74 75 74 72 69 67 68 71 75 78 79 80 79 80 81 81 80 79 78 79 80 80 79 79 79 79 79 78 77 76 75 74 73 72 72 72 70 69 69 69 70 70 71 72 73 74 76 77 75 74 74 76 77 78 77 77 77 77 77 78 80
76 76 75 74 73 72 71 70 66 61 58 58 57 51 47 52 60 65 67 69 70 71 72 73 74 75 75 74 74 72 71 71 73 75 75 76 77 78 79 80 79 78 77 76 76 77 78 79 79 78 78 78 76 75 74 74 74 73 74 74 73 71 70 71 71 72 73 74 75 77 78 79 79 78 78 78 79 80 81 82 83 82 79 78 78 78
Wind_Direction
265 267 265 264 266 271 277 281 287 295 298 300 305 323 43 86 78 69 72 70 71 66 57 69 87 93 96 102 113 122 122 114 104 102 97 85 70 67 65 66 72 67 58 57 52 45 34 28 30 25 24 33 40 35 25 21 20 22 23 24 24 20 13 5 1 358 354 353 352 350 348 346 347 348 349 351 353 355 355 355 355 356 356 355 353 351
262 263 260 258 261 264 269 272 276 281 284 286 284 279 266 226 150 91 354 51 73 73 68 71 90 101 105 105 120 137 137 134 124 117 111 94 78 67 62 56 61 67 71 70 60 51 46 43 42 34 29 25 22 18 14 12 11 12 10 9 11 10 5 359 355 353 353 355 356 355 353 351 349 347 347 349 350 352 352 352 352 353 353 353 352 351
259 259 257 254 257 260 263 266 269 272 274 277 276 274 270 259 232 223 261 270 257 84 73 78 96 120 131 141 228 196 153 148 138 130 123 104 81 72 67 59 47 54 65 68 62 48 42 41 37 30 25 16 6 1 1 1 358 355 352 351 352 355 354 353 351 350 350 352 354 355 354 353 350 348 347 347 348 348 349 349 349 350 350 350 350 351
255 256 255 253 255 258 260 262 264 265 266 268 270 270 268 266 259 240 239 257 259 249 232 70 90 148 176 213 262 270 261 195 165 145 145 152 144 90 42 349 338 353 15 30 36 32 25 22 18 13 8 3 355 350 346 345 345 345 345 342 340 342 345 347 348 347 348 350 351 352 351 351 349 347 346 345 345 345 346 347 346 346 347 347 347 348
254 255 256 255 255 257 258 259 260 260 259 261 263 265 265 267 266 257 245 245 253 257 255 254 266 277 277 283 279 274 285 292 283 255 230 223 236 266 293 303 311 325 339 350 360 9 10 8 3 358 353 348 344 340 335 334 337 341 345 344 342 341 341 343 345 346 347 348 348 349 348 347 346 345 344 343 342 342 343 343 343 343 343 344 344 344
254 255 255 254 254 254 255 256 257 257 256 257 256 257 259 262 265 264 256 245 246 254 257 253 256 272 283 291 290 287 285 284 284 284 279 270 268 276 289 299 309 317 327 333 336 340 344 347 348 346 343 340 337 333 330 330 332 336 340 341 340 339 340 341 342 343 344 344 345 346 345 344 343 341 341 340 339 339 340 340 339 339 339 340 340 340
253 255 255 254 252 252 253 255 256 256 255 255 252 249 251 255 259 263 263 257 249 247 254 254 252 258 269 278 285 291 288 282 281 282 284 283 283 285 289 295 302 308 312 317 321 324 326 330 332 333 332 331 328 326 325 326 328 331 332 334 335 336 337 338 338 339 339 339 340 340 340 340 339 338 337 336 336 336 336 336 335 334 334 335 336 337
252 254 253 251 250 249 251 252 253 252 252 252 248 245 246 248 251 257 263 263 257 250 250 251 248 249 253 259 268 279 282 282 285 284 280 280 282 285 287 292 296 300 303 305 311 315 316 320 322 323 323 322 321 319 320 323 326 327 327 328 330 331 333 334 334 334 334 335 335 335 336 335 335 334 333 332 332 332 331 331 330 329 329 331 333 334
249 251 249 247 247 246 247 248 249 249 250 250 247 245 245 245 246 251 257 261 262 261 257 250 244 244 248 252 254 261 270 276 282 284 282 277 274 277 282 286 290 294 297 300 305 308 307 309 311 312 314 315 316 316 317 319 322 323 324 324 326 327 328 329 329 330 330 330 330 331 332 331 331 331 330 329 328 327 327 327 326 326 326 328 330 332
247 250 249 248 247 245 245 247 249 249 249 250 248 247 246 245 245 247 252 258 260 262 260 255 247 241 245 252 250 248 257 266 272 275 276 275 276 276 278 282 286 288 290 293 297 299 299 300 301 304 306 308 310 311 312 315 316 318 319 320 321 322 323 325 325 326 327 327 327 327 328 328 328 327 326 326 325 324 325 325 325 325 325 326 329 329
248 250 251 250 248 245 246 248 249 249 250 251 250 249 249 248 246 245 248 253 255 257 256 255 254 249 247 250 250 248 253 258 262 263 264 268 273 274 275 278 281 282 283 286 289 291 292 293 295 297 298 301 303 306 307 308 311 312 314 315 317 318 320 321 321 322 323 323 323 323 324 324 324 324 323 322 322 322 323 325 325 325 325 326 327 327
248 251 252 252 248 246 248 250 249 250 252 253 251 251 251 250 248 247 247 249 250 253 253 252 254 253 249 249 251 251 251 254 258 259 259 260 263 266 270 273 275 275 276 279 282 285 288 290 292 292 293 296 298 301 302 304 307 309 310 311 313 315 317 317 318 319 319 319 319 320 320 321 321 320 320 319 319 321 322 324 325 325 325 324 324 324
248 251 252 250 247 246 248 249 248 250 253 254 251 250 250 250 249 247 247 246 245 250 252 251 250 253 251 250 251 250 250 253 258 260 260 259 258 260 263 266 268 272 274 276 278 282 286 289 290 291 292 295 296 298 300 302 304 305 307 309 310 313 314 314 315 315 315 316 316 317 317 317 318 318 317 317 318 319 321 323 323 323 323 321 321 322
244 246 247 247 246 245 246 248 248 248 251 252 249 247 247 247 247 245 245 244 243 247 251 250 250 256 255 250 250 253 254 255 258 260 261 261 261 259 260 261 264 268 272 275 278 280 284 286 288 289 291 293 295 296 298 300 302 303 305 307 309 310 311 312 312 312 313 313 314 314 314 314 314 315 315 315 316 318 319 321 321 321 321 318 317 318
241 244 245 245 244 243 243 245 246 245 246 248 247 243 242 244 245 244 243 243 243 245 250 251 251 257 258 254 254 256 256 255 257 261 263 263 264 263 262 262 263 266 270 275 279 281 283 284 286 287 289 291 293 295 296 298 300 301 303 304 306 308 309 310 310 310 311 312 312 312 311 311 312 313 314 315 316 316 317 320 321 321 319 317 315 315
242 244 245 244 242 240 239 239 241 241 242 244 245 243 242 244 244 243 241 242 244 245 248 251 250 254 260 261 260 260 259 258 258 261 263 266 268 268 267 266 267 268 270 275 280 283 284 284 285 287 288 289 291 293 294 296 298 299 300 302 304 306 307 308 308 308 309 310 310 310 310 310 311 313 314 315 314 315 316 319 320 320 319 315 312 310
240 242 243 244 242 241 240 239 239 240 240 241 243 242 241 241 241 240 239 240 243 244 246 249 248 250 257 262 261 261 262 261 261 262 265 268 269 270 270 270 271 273 273 275 278 279 281 283 285 286 287 288 289 291 293 294 295 297 298 301 302 304 305 306 306 307 308 308 309 309 309 310 312 314 314 313 313 314 315 315 315 318 317 311 307 306
238 238 240 242 241 240 240 239 239 241 241 241 242 240 240 241 241 240 240 240 243 244 244 246 246 246 251 257 259 259 261 262 263 265 267 269 270 271 273 273 273 274 274 275 276 277 279 281 282 284 286 288 289 291 293 294 295 296 298 300 301 302 304 304 306 307 307 307 308 308 309 310 313 313 312 311 311 313 314 312 310 313 311 306 301 301
237 237 239 241 240 239 238 238 239 241 243 243 243 242 244 246 245 244 243 242 243 243 243 245 246 246 247 252 255 257 259 262 264 265 266 268 270 272 274 275 275 274 274 273 274 275 277 279 280 282 284 287 288 290 292 293 295 296 297 298 299 301 302 303 305 305 306 307 307 308 310 311 312 312 312 311 312 314 316 314 312 310 304 301 299 299
235 236 239 241 241 240 240 240 240 242 244 244 243 244 247 248 247 246 245 244 243 244 244 245 247 248 248 250 253 255 257 260 262 263 264 265 268 270 272 274 275 275 275 275 275 276 276 277 278 279 281 283 285 287 290 291 293 293 294 296 298 300 301 303 304 304 305 306 307 309 310 310 310 311 312 313 314 316 316 315 315 312 304 301 303 303
234 234 236 239 241 241 242 243 242 242 244 243 242 243 245 246 246 245 245 243 242 242 242 244 245 247 248 250 251 252 254 256 258 259 261 263 266 268 270 272 274 275 276 276 277 277 277 278 278 278 280 281 284 286 288 290 291 292 293 295 297 299 301 302 303 303 305 306 308 309 308 308 309 311 313 316 317 316 314 313 313 311 305 303 305 305
235 234 235 237 240 241 242 243 241 240 242 241 240 240 242 243 243 244 244 243 242 241 240 240 240 241 244 247 248 249 250 252 254 256 259 261 264 266 268 270 271 273 274 275 276 278 279 280 280 281 282 283 285 287 288 289 290 291 292 294 296 298 300 301 302 303 305 307 307 307 306 306 309 312 314 316 316 313 311 312 314 312 309 306 305 306
234 234 233 236 239 240 240 241 239 239 241 241 240 240 242 244 245 246 247 246 244 243 241 240 240 240 243 246 248 249 250 252 255 257 259 260 262 265 267 269 270 272 273 275 276 278 279 280 281 282 284 285 286 286 287 288 288 289 291 293 295 297 298 300 301 304 306 306 306 305 305 308 310 312 313 315 314 310 308 313 317 316 313 308 304 303
233 233 233 235 237 238 238 239 238 238 240 242 242 242 244 247 248 249 249 247 247 247 246 245 244 243 245 248 251 252 253 254 256 257 258 259 260 263 265 268 270 271 273 275 276 278 279 279 281 282 283 284 285 285 285 285 286 288 290 292 294 296 297 299 301 303 304 304 303 303 306 309 310 311 312 314 314 310 310 315 319 317 314 309 304 302
232 233 233 234 236 236 237 238 239 240 242 245 245 244 246 247 248 248 248 247 248 249 248 249 248 246 247 250 252 252 252 253 254 255 256 257 259 261 264 266 268 270 272 274 276 278 279 280 281 282 282 282 283 283 284 284 285 287 289 291 293 295 297 299 300 300 301 300 300 302 304 307 308 308 310 313 313 310 311 316 317 315 313 308 303 300
231 231 231 232 234 236 238 240 242 243 245 246 246 245 246 247 247 247 247 247 247 248 248 248 247 245 245 247 250 251 251 252 253 254 256 257 259 260 263 265 267 268 270 273 276 277 279 280 280 280 281 281 282 283 284 285 286 288 289 291 293 295 297 297 297 298 298 298 298 300 302 305 306 307 309 312 312 309 309 312 313 313 312 307 301 297
230 230 230 230 232 235 237 239 240 240 241 242 243 243 243 244 245 245 245 245 245 245 246 245 244 243 243 245 248 250 251 252 253 254 255 257 259 261 263 264 266 268 269 272 274 276 277 278 278 279 280 281 283 285 286 287 288 290 290 291 293 295 296 296 296 296 297 297 298 299 301 303 305 306 308 311 312 312 311 310 309 309 308 304 300 298
229 229 230 230 231 233 234 235 236 237 237 239 240 240 240 241 242 243 244 244 243 244 244 244 244 244 244 245 246 249 251 252 253 255 256 258 261 263 264 265 266 267 268 270 272 274 275 276 276 278 280 282 285 286 287 288 289 290 291 292 292 294 294 294 295 295 296 296 297 298 300 302 304 306 308 310 312 312 310 306 306 306 304 301 300 300
228 228 229 230 230 231 233 234 235 236 237 237 238 238 239 240 242 244 245 244 243 244 245 245 245 245 245 246 247 248 251 253 255 257 259 262 263 264 264 265 265 266 267 269 272 273 274 275 276 278 280 282 284 285 286 288 289 289 290 290 291 292 292 293 294 295 295 295 296 298 299 301 303 305 308 311 311 310 308 305 306 307 304 303 304 303
226 226 227 229 229 229 231 233 235 237 238 238 239 239 240 241 242 243 244 244 244 245 245 245 246 246 246 248 249 250 252 254 256 258 260 262 263 264 265 265 265 266 268 270 271 272 273 274 276 278 279 281 282 283 285 286 287 288 288 289 290 291 291 293 294 294 295 296 296 298 299 299 301 302 305 309 308 305 304 301 297 295 294 297 302 301
225 225 226 228 228 229 230 231 233 236 238 238 239 240 241 242 243 244 245 246 246 246 246 246 247 248 248 250 251 252 253 254 256 257 259 261 262 263 264 265 266 268 269 270 270 271 272 274 276 277 279 280 281 282 283 284 285 286 287 288 289 289 290 292 292 293 293 294 295 296 297 298 298 298 301 304 301 297 297 293 287 285 284 288 295 297
224 224 225 226 227 228 229 231 232 234 236 237 238 240 241 243 245 246 247 248 248 248 248 248 249 250 251 252 252 253 254 255 257 258 259 260 261 262 263 265 267 267 268 268 269 270 271 273 275 276 278 280 281 282 283 283 284 285 286 287 287 289 290 290 291 291 291 292 293 294 295 295 295 295 297 300 297 291 291 289 285 284 283 284 290 292
224 224 225 226 226 226 229 231 232 233 234 235 236 239 241 244 245 247 248 249 249 249 250 250 252 252 252 253 254 256 257 258 259 259 260 260 261 262 263 265 265 266 266 267 268 270 271 273 275 277 278 280 281 282 282 283 284 284 286 287 288 289 289 290 290 291 291 292 292 293 293 292 293 293 294 296 292 285 286 286 282 281 282 283 286 286
223 223 224 225 225 225 227 230 232 233 234 235 235 237 240 242 244 245 247 248 249 250 251 251 252 252 253 255 256 257 259 260 260 260 261 261 262 262 263 263 264 264 265 266 268 270 272 274 276 277 279 280 280 281 282 283 284 285 286 287 288 289 289 291 292 292 292 292 291 292 292 291 292 292 291 292 286 279 280 281 280 280 283 284 285 283
224 223 224 225 224 224 226 229 231 233 235 235 235 236 238 240 241 243 244 246 247 249 250 251 251 252 253 255 256 257 258 259 259 260 260 261 262 262 263 263 264 264 265 266 268 270 271 273 275 277 278 278 279 281 282 283 283 284 286 287 288 289 290 292 292 292 292 292 292 292 291 291 292 291 290 290 284 276 274 274 276 278 281 281 281 281
224 224 224 224 224 223 225 228 231 233 234 234 234 235 236 238 239 241 242 243 245 247 248 249 249 251 253 254 255 256 257 258 258 259 260 261 262 262 263 264 264 265 266 267 268 269 271 273 274 275 276 277 278 279 281 282 283 284 285 287 288 290 291 292 292 292 291 291 291 291 291 290 290 289 289 287 279 272 270 271 274 276 277 278 279 280
225 225 224 224 223 223 224 227 230 232 233 233 234 235 236 237 239 240 241 242 243 244 245 246 247 249 251 252 254 255 256 257 258 258 259 260 261 261 262 263 264 264 265 266 268 269 271 271 272 273 274 276 278 279 281 282 284 285 286 287 288 290 290 291 291 290 290 290 290 290 289 288 287 287 287 283 276 270 269 271 273 274 275 276 277 278
224 225 225 224 223 224 224 226 229 231 233 233 234 235 236 238 239 240 241 242 243 244 245 246 247 248 249 250 251 252 253 254 254 255 256 256 258 259 260 261 262 263 264 266 267 269 270 270 271 272 274 276 278 280 282 283 284 286 286 287 288 289 289 289 289 289 289 289 289 289 288 286 286 285 283 278 274 272 270 271 273 274 275 276 277 278
223 224 225 224 224 224 224 225 227 229 231 233 234 235 236 238 239 241 241 243 243 244 246 247 247 248 248 248 248 249 250 251 252 253 254 255 256 258 259 260 262 263 265 266 268 268 269 269 271 272 274 276 278 279 281 283 284 285 285 286 287 287 287 287 287 287 288 288 288 288 287 285 285 285 283 278 274 274 274 274 276 277 277 278 278 279
222 224 226 226 225 225 224 225 227 228 230 232 233 234 236 238 239 241 242 243 244 245 246 247 247 247 248 248 249 250 251 252 253 254 255 257 258 258 259 261 262 263 265 266 266 267 268 269 271 272 274 275 277 278 280 281 282 283 284 285 286 286 286 286 286 287 287 287 287 287 286 286 286 285 283 280 278 278 278 278 279 279 279 279 280 281
221 223 226 227 227 226 226 225 227 228 230 231 233 234 235 237 238 240 241 243 244 244 245 246 246 248 249 250 250 251 252 253 255 256 257 258 259 259 260 260 261 263 264 265 266 267 268 269 271 272 273 274 276 278 279 280 281 283 284 285 285 286 286 287 287 287 286 286 287 286 286 287 286 285 283 282 282 282 282 283 284 283 282 281 282 283
220 221 224 227 228 228 228 227 228 229 230 231 233 234 235 236 238 239 240 242 243 243 243 244 246 247 248 250 251 252 253 255 256 257 257 258 258 259 260 260 261 262 264 266 267 268 269 270 270 271 273 274 276 278 279 280 281 282 283 284 285 286 286 287 287 288 287 287 286 286 287 287 286 285 284 284 284 285 285 287 288 285 283 283 284 284
219 220 222 225 228 229 229 229 229 230 232 232 233 234 235 236 238 239 239 241 242 242 242 243 245 247 248 249 251 252 254 255 255 255 256 258 259 260 262 263 264 264 264 265 267 268 269 270 271 273 274 276 277 279 279 281 282 283 284 285 285 286 287 288 288 287 287 287 287 288 288 287 285 285 285 287 290 294 295 295 292 286 282 281 280 281
214 218 220 223 228 230 230 230 230 230 232 234 234 234 234 235 236 238 239 240 241 242 243 244 245 247 248 249 250 251 253 254 255 256 257 259 261 263 265 267 267 267 267 267 268 270 271 272 274 276 277 278 279 280 281 283 284 284 285 286 287 287 288 288 288 288 288 288 288 288 287 286 287 289 291 296 300 302 300 297 293 289 286 284 282 283
208 212 216 219 224 230 231 230 230 231 232 234 236 236 235 235 236 237 238 239 241 243 244 245 246 247 249 250 250 251 253 254 256 257 259 260 262 264 266 267 268 269 270 271 272 273 275 276 277 278 279 280 281 282 283 284 285 285 287 287 287 288 288 288 289 289 288 288 288 288 289 291 294 297 299 301 302 299 296 296 295 294 292 289 287 288
206 207 211 213 216 225 231 230 230 231 232 234 237 237 237 237 238 238 239 239 241 243 244 245 247 248 249 251 252 253 254 255 257 258 259 261 262 263 265 267 269 270 271 273 274 275 276 277 278 279 280 281 281 282 284 284 285 286 286 286 286 287 288 289 289 289 289 290 291 293 295 297 299 300 301 301 300 298 299 300 300 299 296 292 292 294
208 207 210 212 212 217 228 230 230 231 233 234 236 238 239 239 239 239 239 240 240 242 243 245 246 247 249 251 252 253 254 256 257 259 260 261 263 264 265 266 267 269 270 272 273 274 275 277 278 279 280 281 282 283 284 284 285 285 285 285 287 289 291 292 293 294 295 296 297 297 298 298 299 299 299 298 298 298 299 299 299 299 296 293 294 296
211 210 211 213 213 213 219 225 227 230 233 234 235 237 238 239 239 238 239 239 240 242 243 244 246 247 248 250 252 254 256 257 258 259 260 261 263 264 265 266 267 269 270 271 272 274 275 276 278 279 280 281 281 283 284 285 286 287 289 291 293 294 295 296 296 296 296 296 296 296 297 297 298 298 298 297 296 295 296 296 295 294 291 289 290 290
213 214 213 213 214 214 215 217 220 226 230 232 233 235 237 237 238 239 240 239 239 241 242 244 245 247 249 251 253 255 257 257 257 258 259 260 262 263 264 266 267 269 270 271 272 274 275 276 277 278 280 281 282 284 285 286 287 288 290 292 294 294 295 295 295 295 294 293 294 294 295 296 296 296 296 294 294 294 296 296 294 292 289 286 286 286
215 216 216 215 215 215 215 214 213 216 220 222 224 229 235 237 238 239 241 241 240 241 244 245 247 249 251 253 253 253 253 254 255 256 258 260 262 263 265 266 268 269 271 273 274 275 276 277 278 279 281 282 283 285 286 287 287 288 290 293 294 293 294 294 293 292 292 292 292 292 292 293 294 294 294 294 295 296 297 297 296 295 293 290 288 288
218 217 218 218 217 216 217 216 214 213 215 217 219 223 230 235 237 238 239 241 242 243 245 247 248 249 250 251 252 251 251 253 256 258 260 262 264 266 267 268 270 271 273 274 275 276 277 278 279 281 282 283 284 285 286 286 287 288 291 292 292 292 292 291 291 290 290 290 290 290 291 293 295 296 296 297 297 298 298 298 298 298 296 294 293 294
Height
10976 10976 10976 10978 10979 10980 10981 10980 10980 10979 10980 10980 10980 10981 10982 10982 10981 10981 10982 10982 10982 10982 10982 10981 10980 10979 10980 10981 10981 10980 10980 10979 10979 10978 10978 10979 10980 10980 10980 10980 10980 10980 10980 10980 10979 10979 10979 10979 10979 10980 10980 10980 10980 10980 10979 10979 10978 10978 10978 10977 10977 10976 10975 10975 10974 10973 10972 10971 10970 10969 10968 10967 10966 10965 10963 10962 10960 10958 10957 10955 10953 10951 10949 10948 10946 10945
10973 10971 10972 10976 10977 10978 10979 10979 10979 10979 10979 10979 10979 10980 10981 10981 10981 10981 10981 10981 10981 10981 10981 10981 10980 10980 10981 10982 10982 10981 10981 10980 10980 10980 10980 10980 10980 10980 10980 10981 10981 10982 10981 10981 10980 10980 10980 10980 10979 10979 10979 10979 10979 10979 10979 10978 10978 10978 10977 10977 10976 10976 10975 10974 10973 10973 10972 10971 10969 10968 10967 10966 10965 10963 10962 10960 10958 10957 10955 10953 10951 10950 10948 10946 10945 10943
10968 10965 10967 10973 10975 10976 10977 10977 10978 10978 10977 10978 10977 10978 10979 10980 10981 10980 10980 10980 10980 10980 10980 10981 10981 10981 10981 10982 10982 10982 10982 10981 10980 10980 10980 10981 10981 10981 10981 10982 10982 10982 10982 10981 10981 10981 10981 10980 10980 10979 10979 10979 10978 10978 10978 10978 10978 10977 10977 10976 10976 10975 10974 10974 10973 10972 10971 10970 10969 10967 10966 10964 10963 10961 10960 10958 10956 10955 10953 10951 10950 10948 10946 10944 10943 10941
10962 10959 10964 10970 10973 10974 10975 10975 10976 10977 10976 10976 10976 10976 10977 10978 10979 10979 10979 10979 10980 10980 10980 10980 10980 10981 10981 10982 10982 10982 10982 10981 10981 10981 10981 10981 10981 10981 10981 10982 10982 10982 10981 10981 10981 10981 10981 10980 10980 10979 10979 10978 10978 10978 10977 10977 10977 10977 10976 10975 10975 10974 10973 10973 10971 10970 10969 10968 10967 10965 10964 10963 10961 10960 10958 10956 10955 10953 10951 10950 10948 10946 10945 10943 10941 10939
10955 10955 10961 10968 10970 10971 10972 10973 10974 10974 10975 10975 10975 10974 10974 10975 10977 10977 10978 10978 10978 10979 10979 10979 10979 10980 10980 10981 10982 10982 10982 10981 10981 10981 10981 10982 10982 10982 10982 10982 10982 10981 10981 10980 10980 10980 10980 10980 10979 10979 10979 10978 10978 10977 10977 10977 10977 10976 10975 10974 10974 10973 10972 10971 10970 10969 10967 10966 10965 10964 10962 10961 10959 10958 10956 10954 10953 10951 10949 10947 10945 10944 10943 10941 10939 10937
10949 10950 10959 10964 10966 10967 10968 10969 10970 10971 10973 10973 10973 10973 10972 10974 10974 10974 10976 10976 10977 10977 10978 10978 10978 10979 10979 10980 10981 10981 10981 10981 10980 10980 10981 10981 10982 10982 10982 10982 10981 10981 10981 10980 10980 10979 10979 10979 10979 10978 10978 10978 10978 10977 10977 10976 10976 10975 10974 10974 10973 10972 10971 10969 10968 10967 10966 10965 10964 10962 10961 10959 10957 10956 10954 10952 10950 10948 10946 10944 10943 10941 10940 10939 10937 10935
10944 10946 10956 10960 10961 10963 10964 10966 10966 10967 10969 10969 10970 10971 10972 10973 10972 10972 10973 10974 10975 10976 10976 10977 10977 10977 10978 10978 10979 10980 10980 10980 10980 10980 10980 10981 10981 10982 10982 10981 10981 10981 10980 10980 10979 10979 10978 10978 10978 10978 10977 10977 10977 10976 10976 10975 10974 10974 10973 10972 10972 10970 10969 10968 10967 10966 10965 10964 10962 10961 10960 10958 10956 10954 10952 10950 10948 10946 10944 10942 10941 10939 10938 10937 10936 10934
10940 10941 10951 10955 10956 10959 10960 10961 10961 10963 10965 10964 10966 10969 10970 10971 10972 10971 10971 10971 10973 10974 10975 10975 10976 10976 10977 10977 10978 10979 10979 10979 10979 10980 10980 10981 10981 10981 10981 10981 10980 10980 10980 10979 10979 10978 10978 10977 10977 10976 10976 10976 10976 10975 10974 10974 10973 10972 10972 10971 10970 10969 10968 10967 10966 10964 10963 10962 10961 10959 10958 10956 10954 10952 10950 10948 10945 10943 10942 10940 10939 10938 10936 10935 10934 10933
10933 10935 10945 10949 10951 10955 10955 10954 10955 10958 10960 10959 10962 10967 10968 10970 10971 10971 10970 10969 10970 10972 10972 10973 10974 10974 10975 10976 10977 10977 10977 10977 10978 10979 10979 10980 10980 10980 10980 10980 10980 10979 10979 10979 10978 10978 10977 10976 10975 10975 10975 10974 10974 10974 10973 10972 10972 10971 10970 10969 10968 10967 10966 10965 10964 10963 10961 10960 10958 10957 10955 10953 10951 10949 10947 10945 10943 10941 10940 10938 10937 10935 10934 10932 10931 10930
10929 10930 10938 10944 10948 10950 10949 10948 10950 10954 10953 10954 10960 10964 10965 10967 10969 10969 10969 10968 10969 10969 10968 10969 10971 10972 10973 10973 10975 10976 10976 10976 10977 10977 10978 10978 10978 10978 10979 10979 10978 10978 10978 10978 10978 10977 10976 10976 10975 10974 10974 10973 10973 10972 10971 10971 10970 10969 10968 10967 10967 10965 10964 10963 10962 10961 10959 10958 10956 10954 10953 10951 10949 10947 10945 10943 10941 10939 10937 10936 10934 10933 10931 10929 10928 10926
10925 10925 10932 10940 10945 10945 10943 10943 10947 10949 10947 10950 10957 10960 10962 10964 10966 10967 10968 10967 10968 10967 10963 10965 10968 10969 10970 10971 10972 10974 10974 10975 10976 10976 10976 10976 10976 10976 10976 10977 10977 10976 10976 10976 10976 10976 10975 10975 10974 10974 10973 10972 10972 10971 10970 10969 10968 10967 10966 10965 10965 10963 10962 10961 10960 10958 10957 10955 10953 10952 10950 10949 10947 10945 10942 10940 10939 10937 10935 10933 10931 10929 10927 10925 10924 10922
10921 10922 10928 10935 10939 10940 10939 10940 10943 10944 10942 10947 10954 10956 10958 10960 10962 10965 10965 10966 10967 10963 10960 10964 10967 10967 10967 10968 10969 10971 10971 10972 10974 10974 10975 10975 10974 10974 10974 10974 10974 10974 10974 10974 10974 10974 10973 10973 10973 10972 10972 10971 10970 10969 10968 10967 10966 10965 10964 10963 10962 10961 10960 10958 10957 10956 10954 10953 10951 10949 10948 10946 10944 10942 10940 10938 10936 10934 10932 10931 10928 10926 10924 10922 10920 10918
10918 10918 10921 10927 10932 10934 10934 10935 10938 10939 10938 10943 10949 10951 10954 10956 10958 10961 10962 10963 10964 10959 10957 10962 10965 10964 10964 10966 10967 10968 10968 10969 10970 10971 10971 10972 10972 10971 10972 10972 10972 10971 10971 10971 10971 10971 10971 10970 10970 10970 10969 10968 10968 10967 10965 10964 10963 10962 10961 10960 10959 10958 10957 10956 10954 10953 10951 10950 10948 10946 10945 10943 10941 10940 10937 10935 10933 10931 10929 10927 10925 10923 10920 10918 10916 10915
10912 10911 10912 10919 10926 10929 10930 10931 10933 10935 10934 10937 10942 10946 10948 10950 10953 10956 10957 10958 10959 10956 10955 10960 10964 10961 10959 10962 10964 10965 10966 10966 10966 10967 10967 10968 10968 10968 10969 10969 10969 10969 10968 10968 10968 10968 10968 10968 10967 10967 10966 10966 10965 10964 10963 10961 10960 10959 10958 10957 10956 10955 10954 10953 10951 10949 10948 10946 10944 10943 10941 10939 10938 10937 10935 10933 10930 10928 10926 10923 10921 10919 10917 10915 10913 10912
10905 10905 10907 10913 10919 10922 10925 10926 10927 10928 10928 10929 10934 10938 10942 10945 10948 10950 10951 10952 10953 10952 10953 10958 10962 10958 10953 10958 10962 10961 10962 10963 10962 10963 10963 10963 10963 10964 10965 10966 10966 10966 10966 10965 10965 10965 10965 10965 10964 10964 10963 10962 10962 10961 10960 10958 10957 10956 10956 10955 10953 10952 10951 10949 10947 10945 10944 10942 10940 10939 10937 10935 10934 10933 10932 10930 10928 10926 10923 10921 10918 10915 10913 10911 10910 10908
10899 10902 10902 10904 10909 10912 10916 10917 10916 10918 10921 10922 10926 10932 10938 10941 10941 10942 10945 10947 10948 10950 10952 10955 10959 10955 10950 10954 10958 10957 10957 10958 10959 10959 10959 10959 10958 10958 10961 10962 10963 10964 10964 10963 10962 10961 10961 10961 10960 10960 10960 10959 10959 10958 10957 10956 10955 10953 10953 10952 10951 10949 10947 10945 10943 10941 10939 10938 10936 10934 10932 10931 10929 10928 10927 10926 10925 10923 10921 10918 10915 10912 10910 10907 10905 10903
10893 10897 10894 10894 10900 10904 10907 10909 10907 10910 10915 10917 10919 10928 10933 10932 10931 10934 10939 10942 10943 10947 10950 10952 10954 10953 10950 10951 10953 10953 10953 10953 10954 10955 10955 10954 10953 10953 10955 10957 10958 10959 10960 10960 10960 10959 10958 10958 10957 10956 10956 10955 10955 10954 10954 10953 10952 10951 10950 10948 10947 10945 10943 10941 10939 10937 10935 10933 10931 10930 10928 10926 10925 10924 10923 10921 10920 10918 10916 10914 10912 10909 10906 10903 10901 10899
10885 10888 10883 10884 10892 10895 10896 10899 10900 10903 10909 10911 10915 10922 10923 10920 10923 10930 10934 10938 10940 10944 10947 10948 10950 10950 10950 10949 10948 10949 10949 10949 10951 10952 10952 10950 10948 10948 10950 10951 10953 10955 10956 10956 10956 10956 10956 10956 10955 10953 10952 10951 10950 10950 10950 10949 10948 10947 10946 10945 10943 10942 10939 10937 10935 10933 10931 10929 10926 10925 10923 10922 10921 10919 10917 10915 10914 10912 10910 10908 10906 10903 10901 10898 10896 10894
10874 10877 10875 10876 10882 10884 10884 10889 10893 10897 10903 10908 10912 10914 10913 10914 10921 10926 10930 10934 10937 10940 10942 10943 10944 10947 10948 10946 10944 10945 10946 10946 10948 10949 10949 10947 10945 10944 10945 10946 10948 10950 10951 10952 10952 10952 10952 10953 10952 10951 10950 10948 10947 10946 10946 10945 10944 10943 10942 10941 10939 10938 10935 10933 10931 10928 10926 10924 10922 10920 10919 10918 10915 10913 10911 10909 10907 10905 10903 10901 10900 10897 10895 10893 10890 10887
10864 10868 10869 10869 10872 10873 10874 10882 10891 10896 10899 10903 10905 10905 10907 10911 10917 10921 10925 10929 10932 10935 10938 10939 10941 10944 10945 10943 10942 10943 10943 10943 10944 10945 10945 10945 10942 10942 10942 10942 10943 10944 10945 10947 10947 10948 10949 10949 10949 10948 10947 10945 10944 10943 10943 10942 10941 10939 10938 10936 10935 10934 10932 10930 10927 10924 10922 10920 10918 10916 10915 10912 10910 10907 10905 10903 10901 10899 10897 10895 10894 10892 10889 10887 10884 10881
10852 10859 10862 10861 10861 10864 10869 10881 10892 10892 10890 10893 10896 10898 10901 10905 10910 10914 10918 10923 10927 10930 10933 10935 10938 10940 10940 10938 10938 10939 10940 10940 10940 10940 10941 10941 10939 10938 10939 10939 10939 10939 10940 10941 10941 10942 10943 10944 10944 10943 10943 10942 10941 10940 10940 10938 10936 10935 10933 10932 10930 10929 10928 10926 10924 10921 10919 10917 10915 10913 10910 10907 10904 10902 10899 10898 10897 10893 10891 10890 10888 10886 10884 10881 10878 10875
10844 10852 10855 10851 10851 10860 10869 10878 10884 10881 10877 10881 10887 10891 10894 10897 10901 10906 10911 10917 10920 10924 10927 10929 10932 10934 10933 10933 10933 10934 10935 10935 10935 10936 10937 10938 10936 10934 10934 10935 10935 10935 10935 10935 10936 10937 10937 10937 10936 10936 10937 10937 10937 10936 10935 10933 10931 10930 10928 10927 10926 10925 10924 10922 10920 10918 10916 10914 10911 10908 10904 10901 10899 10898 10895 10893 10892 10888 10885 10884 10883 10881 10879 10876 10873 10870
10835 10840 10844 10842 10846 10858 10864 10865 10869 10869 10866 10870 10878 10884 10887 10889 10894 10901 10907 10912 10913 10917 10920 10922 10926 10929 10928 10927 10928 10930 10931 10931 10932 10932 10933 10933 10932 10930 10929 10930 10931 10930 10929 10929 10930 10931 10931 10930 10929 10930 10931 10931 10931 10930 10929 10927 10926 10924 10923 10923 10922 10921 10920 10918 10916 10915 10913 10910 10907 10903 10900 10898 10895 10894 10892 10889 10886 10883 10880 10878 10878 10876 10874 10871 10869 10865
10823 10829 10837 10839 10843 10849 10851 10850 10856 10859 10858 10863 10874 10882 10884 10886 10892 10897 10901 10904 10905 10910 10914 10917 10922 10926 10924 10923 10924 10926 10927 10928 10928 10928 10928 10927 10926 10925 10925 10925 10925 10925 10923 10922 10923 10925 10925 10924 10924 10924 10924 10924 10924 10924 10923 10922 10920 10919 10919 10918 10918 10917 10916 10914 10913 10911 10910 10907 10902 10899 10897 10896 10892 10890 10888 10885 10882 10879 10876 10873 10872 10870 10868 10866 10864 10861
10814 10823 10832 10833 10832 10835 10837 10840 10848 10856 10859 10863 10873 10880 10881 10882 10885 10888 10892 10895 10899 10905 10908 10912 10919 10923 10920 10918 10918 10920 10922 10922 10921 10922 10921 10921 10920 10921 10921 10921 10921 10920 10918 10916 10916 10918 10917 10917 10918 10917 10917 10917 10917 10917 10917 10916 10915 10915 10914 10914 10913 10912 10911 10910 10909 10908 10906 10903 10899 10896 10895 10893 10890 10886 10884 10883 10880 10876 10872 10869 10866 10864 10862 10860 10858 10856
10804 10814 10821 10822 10823 10827 10834 10841 10851 10859 10860 10861 10868 10873 10874 10874 10875 10878 10882 10886 10892 10899 10901 10906 10913 10915 10913 10912 10911 10913 10915 10915 10915 10915 10915 10914 10915 10916 10917 10917 10916 10915 10913 10911 10911 10912 10911 10911 10911 10910 10909 10909 10910 10910 10910 10909 10909 10909 10909 10909 10908 10907 10906 10905 10904 10903 10902 10899 10895 10893 10892 10890 10887 10882 10879 10878 10876 10872 10868 10864 10861 10857 10854 10853 10851 10849
10794 10803 10809 10813 10817 10824 10833 10841 10846 10848 10849 10851 10857 10862 10864 10864 10865 10867 10870 10877 10886 10891 10893 10899 10904 10904 10905 10906 10905 10906 10907 10908 10909 10909 10909 10909 10910 10911 10912 10911 10910 10909 10909 10907 10906 10907 10906 10904 10903 10902 10902 10903 10903 10904 10903 10902 10902 10903 10903 10903 10903 10902 10901 10899 10899 10898 10897 10895 10891 10889 10888 10886 10883 10879 10876 10873 10871 10867 10863 10859 10855 10851 10848 10846 10845 10842
10784 10794 10801 10807 10813 10819 10826 10831 10832 10833 10837 10841 10846 10850 10852 10853 10853 10855 10860 10871 10878 10880 10885 10892 10894 10895 10899 10899 10899 10900 10900 10902 10903 10903 10903 10904 10906 10907 10906 10905 10905 10904 10904 10902 10901 10901 10900 10897 10896 10896 10896 10897 10897 10897 10896 10895 10895 10896 10896 10896 10896 10896 10895 10893 10893 10893 10892 10890 10887 10884 10883 10882 10880 10877 10873 10868 10864 10862 10859 10854 10850 10846 10842 10841 10839 10836
10775 10786 10794 10799 10806 10813 10817 10820 10821 10823 10828 10832 10836 10840 10842 10843 10845 10848 10854 10863 10868 10872 10881 10886 10884 10887 10892 10893 10894 10895 10895 10897 10898 10897 10899 10900 10901 10901 10900 10899 10899 10898 10898 10897 10896 10895 10892 10890 10890 10890 10891 10892 10893 10892 10890 10889 10889 10889 10889 10889 10890 10890 10889 10888 10888 10887 10885 10884 10882 10880 10879 10877 10875 10874 10871 10865 10859 10855 10852 10848 10844 10840 10836 10834 10832 10829
10764 10777 10785 10790 10798 10805 10807 10810 10812 10814 10819 10824 10828 10831 10834 10836 10838 10842 10848 10855 10860 10866 10875 10877 10876 10882 10886 10887 10889 10891 10892 10893 10894 10894 10895 10896 10895 10894 10893 10893 10893 10893 10893 10892 10891 10888 10886 10885 10885 10885 10886 10887 10888 10888 10887 10885 10884 10883 10882 10883 10884 10884 10882 10882 10882 10880 10878 10877 10876 10875 10874 10872 10871 10870 10868 10866 10860 10854 10849 10843 10839 10836 10831 10828 10826 10824
10757 10770 10776 10781 10788 10794 10797 10800 10803 10806 10810 10816 10821 10824 10827 10829 10832 10837 10842 10848 10853 10861 10867 10869 10871 10877 10881 10883 10885 10885 10886 10888 10889 10890 10891 10891 10890 10888 10887 10886 10887 10888 10887 10885 10883 10882 10880 10880 10880 10879 10879 10881 10882 10883 10882 10881 10879 10877 10877 10877 10877 10877 10877 10876 10876 10875 10872 10871 10870 10870 10868 10867 10866 10865 10864 10865 10862 10858 10851 10841 10833 10830 10826 10823 10820 10818
10751 10760 10765 10768 10776 10785 10790 10791 10795 10799 10801 10805 10811 10816 10819 10823 10828 10833 10838 10842 10848 10854 10859 10861 10866 10874 10877 10877 10877 10878 10880 10882 10883 10884 10884 10884 10884 10883 10881 10881 10881 10881 10880 10877 10876 10875 10874 10875 10874 10873 10873 10874 10875 10876 10876 10875 10873 10871 10871 10871 10871 10871 10871 10870 10870 10868 10867 10865 10864 10865 10864 10861 10860 10859 10859 10860 10859 10856 10850 10838 10828 10824 10822 10818 10814 10812
10740 10748 10753 10757 10767 10780 10785 10784 10788 10789 10786 10792 10804 10812 10816 10820 10824 10828 10831 10835 10841 10846 10850 10856 10864 10870 10870 10869 10871 10872 10874 10876 10877 10877 10876 10877 10878 10877 10876 10875 10875 10875 10873 10870 10869 10868 10868 10868 10868 10867 10867 10867 10868 10868 10868 10867 10866 10864 10864 10864 10864 10864 10864 10863 10863 10861 10860 10858 10858 10858 10858 10855 10853 10853 10853 10855 10856 10853 10845 10833 10823 10820 10818 10812 10808 10805
10729 10737 10742 10747 10760 10773 10776 10774 10775 10772 10774 10788 10804 10809 10811 10814 10817 10819 10823 10828 10833 10838 10844 10852 10859 10861 10861 10863 10865 10867 10867 10869 10869 10869 10869 10870 10870 10871 10870 10869 10868 10868 10866 10864 10863 10863 10863 10863 10862 10861 10860 10859 10859 10860 10860 10860 10859 10858 10858 10858 10857 10857 10856 10856 10855 10854 10852 10851 10850 10851 10851 10849 10848 10847 10847 10849 10851 10849 10840 10828 10818 10814 10811 10807 10802 10799
10718 10726 10732 10741 10754 10762 10762 10761 10761 10762 10771 10789 10799 10800 10801 10804 10806 10810 10814 10820 10826 10831 10838 10845 10850 10852 10855 10857 10859 10859 10860 10861 10861 10861 10861 10861 10862 10863 10861 10860 10860 10860 10859 10859 10858 10858 10858 10858 10857 10855 10853 10851 10852 10852 10852 10852 10852 10852 10851 10851 10850 10849 10849 10848 10847 10845 10843 10842 10842 10843 10843 10843 10842 10841 10842 10843 10844 10841 10833 10822 10812 10808 10805 10801 10797 10793
10710 10717 10725 10734 10744 10749 10751 10752 10753 10758 10770 10781 10786 10788 10791 10793 10795 10800 10806 10813 10819 10825 10829 10836 10841 10845 10847 10849 10851 10853 10853 10852 10853 10854 10853 10853 10854 10854 10852 10852 10852 10851 10851 10852 10852 10852 10853 10853 10852 10849 10846 10845 10845 10845 10845 10844 10845 10845 10844 10844 10844 10843 10842 10841 10839 10837 10836 10834 10834 10835 10835 10835 10835 10835 10836 10837 10834 10829 10822 10814 10807 10803 10798 10793 10789 10785
10701 10707 10716 10725 10733 10738 10743 10745 10746 10752 10761 10769 10774 10779 10781 10783 10787 10793 10799 10806 10812 10816 10820 10827 10833 10837 10839 10841 10843 10844 10843 10843 10845 10845 10845 10845 10844 10844 10844 10843 10843 10843 10843 10845 10846 10847 10847 10847 10845 10842 10840 10838 10837 10837 10837 10836 10836 10837 10836 10836 10836 10836 10835 10833 10831 10830 10828 10827 10827 10827 10826 10826 10827 10828 10831 10830 10822 10815 10810 10804 10799 10795 10790 10785 10780 10776
10690 10697 10706 10715 10722 10728 10733 10736 10738 10744 10752 10760 10766 10769 10773 10776 10779 10785 10793 10799 10804 10809 10814 10821 10826 10828 10830 10832 10833 10833 10833 10833 10835 10835 10835 10836 10835 10835 10836 10835 10835 10836 10836 10837 10840 10840 10840 10838 10836 10835 10833 10832 10830 10829 10829 10829 10828 10828 10828 10828 10828 10828 10828 10827 10824 10823 10822 10820 10819 10819 10817 10817 10816 10818 10822 10822 10813 10804 10800 10796 10791 10787 10782 10777 10773 10768
10681 10688 10695 10703 10711 10718 10724 10728 10732 10737 10743 10750 10755 10759 10764 10768 10772 10779 10787 10791 10796 10803 10809 10814 10817 10818 10819 10821 10821 10822 10823 10824 10825 10826 10826 10827 10827 10828 10828 10827 10828 10829 10829 10831 10832 10832 10831 10830 10828 10828 10827 10826 10824 10823 10823 10822 10821 10820 10820 10820 10820 10820 10820 10819 10818 10816 10815 10813 10811 10810 10808 10807 10807 10807 10809 10809 10804 10796 10791 10787 10783 10779 10774 10770 10765 10760
10675 10681 10687 10694 10702 10710 10716 10721 10725 10729 10734 10739 10743 10750 10757 10761 10766 10775 10781 10783 10790 10799 10803 10805 10806 10806 10807 10809 10811 10813 10814 10815 10816 10817 10818 10819 10819 10819 10819 10819 10820 10821 10822 10823 10824 10823 10822 10822 10821 10821 10821 10819 10818 10817 10817 10816 10814 10813 10812 10811 10811 10811 10811 10810 10810 10808 10807 10804 10803 10801 10798 10796 10797 10797 10796 10795 10792 10787 10782 10779 10775 10771 10766 10761 10755 10750
10670 10676 10681 10686 10694 10700 10707 10714 10718 10722 10726 10730 10736 10742 10749 10754 10761 10770 10774 10777 10783 10790 10792 10793 10795 10795 10797 10799 10802 10804 10805 10806 10809 10809 10809 10810 10810 10810 10810 10811 10813 10814 10815 10815 10816 10815 10814 10814 10814 10814 10813 10811 10811 10810 10809 10808 10807 10806 10804 10803 10802 10802 10801 10800 10800 10799 10797 10796 10794 10792 10789 10787 10786 10786 10785 10783 10780 10776 10773 10769 10765 10760 10755 10750 10746 10741
10665 10670 10675 10680 10686 10692 10698 10707 10712 10714 10718 10724 10729 10735 10743 10750 10757 10763 10767 10769 10773 10778 10780 10782 10784 10786 10788 10790 10793 10794 10796 10798 10801 10800 10799 10799 10799 10800 10801 10803 10805 10807 10808 10807 10807 10807 10806 10805 10805 10806 10805 10804 10804 10803 10801 10799 10798 10797 10795 10794 10793 10792 10791 10790 10789 10788 10787 10786 10785 10783 10781 10779 10777 10776 10774 10772 10768 10765 10762 10759 10755 10750 10745 10740 10737 10732
10658 10664 10670 10676 10680 10685 10691 10699 10704 10708 10712 10718 10722 10729 10738 10745 10750 10755 10759 10761 10763 10766 10770 10773 10775 10777 10779 10782 10784 10786 10787 10788 10789 10789 10789 10789 10790 10791 10793 10794 10797 10798 10799 10799 10799 10798 10797 10796 10796 10797 10796 10796 10794 10793 10791 10790 10790 10788 10786 10785 10784 10783 10781 10780 10779 10778 10778 10777 10776 10774 10772 10770 10769 10767 10764 10761 10757 10752 10749 10747 10744 10739 10735 10732 10728 10724
10652 10660 10667 10672 10675 10678 10683 10690 10695 10701 10706 10710 10715 10722 10730 10736 10740 10745 10750 10752 10753 10757 10761 10765 10767 10768 10770 10773 10775 10777 10778 10777 10777 10779 10781 10781 10782 10783 10784 10785 10787 10787 10788 10790 10790 10789 10789 10788 10788 10787 10786 10785 10784 10782 10781 10781 10780 10779 10777 10775 10773 10772 10771 10770 10770 10769 10768 10767 10766 10764 10762 10760 10758 10756 10753 10750 10747 10742 10736 10733 10730 10727 10725 10722 10720 10716
10647 10654 10660 10666 10670 10673 10676 10682 10688 10694 10699 10703 10707 10714 10721 10726 10731 10736 10740 10743 10747 10750 10754 10758 10760 10760 10761 10764 10766 10768 10769 10768 10769 10771 10773 10773 10773 10775 10775 10775 10776 10776 10777 10778 10779 10779 10778 10779 10778 10777 10775 10774 10773 10772 10772 10772 10771 10769 10767 10765 10763 10762 10762 10762 10761 10759 10758 10758 10756 10754 10751 10748 10746 10744 10741 10741 10740 10736 10729 10724 10720 10716 10714 10713 10712 10709
10639 10645 10652 10659 10664 10668 10671 10676 10682 10688 10693 10698 10702 10707 10714 10719 10724 10728 10732 10736 10740 10743 10746 10749 10752 10753 10754 10755 10758 10759 10760 10760 10761 10763 10763 10764 10764 10766 10767 10767 10766 10766 10767 10768 10768 10768 10768 10768 10768 10767 10765 10764 10764 10763 10763 10763 10762 10760 10758 10755 10754 10754 10753 10752 10751 10749 10748 10746 10744 10741 10739 10736 10734 10733 10731 10730 10729 10725 10721 10716 10711 10706 10705 10704 10702 10700
10632 10637 10643 10650 10657 10663 10666 10670 10677 10682 10686 10691 10696 10701 10706 10711 10716 10719 10723 10727 10732 10734 10737 10740 10742 10744 10746 10747 10749 10751 10751 10752 10753 10754 10755 10757 10757 10757 10758 10758 10758 10758 10758 10759 10759 10758 10758 10758 10758 10757 10756 10755 10755 10755 10754 10753 10752 10750 10747 10745 10744 10744 10742 10740 10738 10737 10735 10733 10731 10730 10729 10727 10726 10724 10722 10720 10718 10715 10712 10709 10704 10699 10697 10695 10693 10690
10626 10631 10637 10644 10651 10656 10659 10664 10671 10676 10680 10685 10690 10694 10698 10701 10706 10710 10713 10719 10723 10725 10728 10730 10732 10734 10736 10738 10741 10743 10743 10744 10746 10746 10747 10748 10748 10748 10748 10748 10749 10750 10750 10750 10749 10749 10749 10749 10748 10748 10747 10746 10746 10745 10744 10742 10740 10738 10735 10734 10733 10731 10730 10728 10727 10726 10725 10723 10721 10721 10720 10719 10718 10716 10713 10710 10708 10706 10705 10702 10698 10694 10691 10688 10685 10682
10622 10627 10633 10639 10644 10649 10654 10660 10666 10672 10676 10681 10685 10688 10690 10693 10696 10700 10704 10711 10716 10718 10719 10721 10724 10725 10727 10731 10734 10736 10736 10735 10735 10736 10736 10736 10738 10738 10738 10738 10739 10741 10741 10741 10739 10739 10739 10740 10739 10739 10738 10737 10736 10735 10733 10731 10729 10727 10726 10725 10724 10722 10721 10720 10719 10718 10717 10715 10713 10712 10711 10710 10709 10708 10705 10701 10699 10697 10696 10695 10691 10688 10684 10681 10677 10673
10620 10624 10629 10635 10641 10646 10649 10653 10659 10665 10670 10673 10677 10680 10682 10684 10687 10691 10696 10702 10708 10710 10711 10713 10716 10718 10720 10723 10726 10727 10726 10723 10724 10725 10726 10727 10729 10730 10730 10730 10730 10731 10732 10731 10730 10729 10729 10730 10729 10729 10728 10727 10726 10724 10722 10720 10719 10717 10717 10717 10716 10715 10714 10712 10711 10710 10709 10707 10705 10704 10702 10700 10699 10698 10696 10693 10690 10688 10686 10684 10681 10678 10675 10671 10667 10664
10614 10621 10628 10634 10638 10639 10640 10643 10649 10655 10660 10664 10667 10671 10674 10677 10680 10684 10688 10693 10698 10700 10702 10704 10707 10709 10712 10714 10715 10716 10715 10715 10716 10718 10719 10720 10721 10721 10721 10721 10722 10723 10723 10722 10720 10719 10719 10719 10719 10718 10718 10717 10716 10714 10712 10711 10709 10708 10708 10708 10707 10706 10706 10705 10703 10702 10701 10700 10697 10695 10693 10690 10688 10687 10685 10683 10680 10678 10675 10672 10669 10666 10663 10659 10655 10652